Time,TemperatureF,DewpointF,PressureIn,WindDirection,WindDirectionDegrees,WindSpeedMPH,WindSpeedGustMPH,Humidity,HourlyPrecipIn,Conditions,Clouds,dailyrainin,SoftwareType,DateUTC
2013-04-04 00:03:00,56.0,46.0,30.20,NNE,16,5.0,8.0,69,0.00,,,0.00,,2013-04-04 04:03:00,
2013-04-04 00:13:00,56.0,46.0,30.20,NNE,16,5.0,8.0,69,0.00,,,0.00,,2013-04-04 04:13:00,
2013-04-04 00:23:00,56.0,46.0,30.22,NE,49,3.0,9.0,69,0.00,,,0.00,,2013-04-04 04:23:00,
2013-04-04 00:33:00,56.0,47.0,30.21,NE,37,3.0,7.0,71,0.00,,,0.00,,2013-04-04 04:33:00,
2013-04-04 00:43:00,56.0,47.0,30.21,NE,37,3.0,7.0,71,0.00,,,0.00,,2013-04-04 04:43:00,
2013-04-04 00:53:00,55.0,47.0,30.20,East,83,3.0,8.0,75,0.00,,,0.00,,2013-04-04 04:53:00,
2013-04-04 01:02:00,55.0,48.0,30.19,NNE,15,2.0,7.0,76,0.00,,,0.00,,2013-04-04 05:02:00,
2013-04-04 01:13:00,55.0,48.0,30.19,NNE,15,2.0,7.0,76,0.00,,,0.00,,2013-04-04 05:13:00,
2013-04-04 01:23:00,54.0,47.0,30.18,NNE,21,5.0,10.0,76,0.01,,,0.01,,2013-04-04 05:23:00,
2013-04-04 01:32:00,54.0,47.0,30.19,East,82,3.0,10.0,77,0.01,,,0.01,,2013-04-04 05:32:00,
2013-04-04 01:42:00,54.0,47.0,30.19,East,82,3.0,10.0,77,0.01,,,0.01,,2013-04-04 05:42:00,
2013-04-04 01:53:00,54.0,46.0,30.18,NE,44,4.0,10.0,75,0.01,,,0.01,,2013-04-04 05:53:00,
2013-04-04 02:02:00,54.0,46.0,30.17,NE,53,5.0,10.0,75,0.01,,,0.01,,2013-04-04 06:02:00,
2013-04-04 02:12:00,54.0,46.0,30.17,NE,53,5.0,10.0,75,0.01,,,0.01,,2013-04-04 06:12:00,
2013-04-04 02:22:00,54.0,47.0,30.16,NNE,30,5.0,10.0,77,0.00,,,0.01,,2013-04-04 06:22:00,
2013-04-04 02:32:00,54.0,47.0,30.16,NNE,30,3.0,13.0,77,0.00,,,0.01,,2013-04-04 06:32:00,
2013-04-04 02:42:00,54.0,47.0,30.16,NNE,30,3.0,13.0,77,0.00,,,0.01,,2013-04-04 06:42:00,
2013-04-04 02:53:00,54.0,47.0,30.14,NNE,14,4.0,12.0,77,0.00,,,0.01,,2013-04-04 06:53:00,
2013-04-04 03:02:00,54.0,47.0,30.13,ENE,59,5.0,13.0,76,0.00,,,0.01,,2013-04-04 07:02:00,
2013-04-04 03:12:00,54.0,47.0,30.13,ENE,59,5.0,13.0,76,0.00,,,0.01,,2013-04-04 07:12:00,
2013-04-04 03:22:00,55.0,47.0,30.12,North,359,4.0,16.0,74,0.00,,,0.01,,2013-04-04 07:22:00,
2013-04-04 03:32:00,55.0,47.0,30.12,ENE,74,3.0,14.0,74,0.00,,,0.01,,2013-04-04 07:32:00,
2013-04-04 03:43:00,55.0,47.0,30.12,ENE,74,3.0,14.0,74,0.00,,,0.01,,2013-04-04 07:43:00,
2013-04-04 03:53:00,55.0,46.0,30.11,ENE,67,5.0,15.0,71,0.00,,,0.01,,2013-04-04 07:53:00,
2013-04-04 04:02:00,56.0,47.0,30.11,ENE,57,3.0,12.0,72,0.00,,,0.01,,2013-04-04 08:02:00,
2013-04-04 04:12:00,56.0,47.0,30.11,ENE,57,3.0,12.0,72,0.00,,,0.01,,2013-04-04 08:12:00,
2013-04-04 04:23:00,56.0,46.0,30.11,ENE,58,4.0,16.0,68,0.00,,,0.01,,2013-04-04 08:23:00,
2013-04-04 04:32:00,56.0,46.0,30.11,NE,38,7.0,13.0,68,0.00,,,0.01,,2013-04-04 08:32:00,
2013-04-04 04:43:00,56.0,46.0,30.11,NE,38,7.0,13.0,68,0.00,,,0.01,,2013-04-04 08:43:00,
2013-04-04 04:53:00,56.0,44.0,30.10,NE,42,7.0,14.0,65,0.00,,,0.01,,2013-04-04 08:53:00,
2013-04-04 05:03:00,56.0,45.0,30.10,NE,39,2.0,14.0,67,0.00,,,0.01,,2013-04-04 09:03:00,
2013-04-04 05:13:00,56.0,45.0,30.10,NE,39,2.0,14.0,67,0.00,,,0.01,,2013-04-04 09:13:00,
2013-04-04 05:22:00,56.0,47.0,30.10,East,85,4.0,10.0,73,0.00,,,0.01,,2013-04-04 09:22:00,
2013-04-04 05:34:00,56.0,48.0,30.10,ENE,71,5.0,12.0,74,0.00,,,0.01,,2013-04-04 09:34:00,
2013-04-04 05:43:00,56.0,48.0,30.10,ENE,71,5.0,12.0,74,0.00,,,0.01,,2013-04-04 09:43:00,
2013-04-04 05:54:00,56.0,48.0,30.10,ENE,67,4.0,10.0,74,0.00,,,0.01,,2013-04-04 09:54:00,
2013-04-04 06:04:00,56.0,48.0,30.10,East,89,5.0,12.0,74,0.00,,,0.01,,2013-04-04 10:04:00,
2013-04-04 06:12:00,56.0,48.0,30.10,East,89,5.0,12.0,74,0.00,,,0.01,,2013-04-04 10:12:00,
2013-04-04 06:24:00,56.0,49.0,30.11,NNE,29,5.0,10.0,77,0.00,,,0.01,,2013-04-04 10:24:00,
2013-04-04 06:33:00,56.0,49.0,30.11,ENE,67,6.0,17.0,77,0.00,,,0.01,,2013-04-04 10:33:00,
2013-04-04 06:43:00,56.0,49.0,30.11,ENE,67,6.0,17.0,77,0.00,,,0.01,,2013-04-04 10:43:00,
2013-04-04 06:54:00,56.0,50.0,30.10,NE,35,5.0,14.0,79,0.00,,,0.01,,2013-04-04 10:54:00,
2013-04-04 07:03:00,56.0,50.0,30.10,ENE,66,4.0,12.0,79,0.01,,,0.02,,2013-04-04 11:03:00,
2013-04-04 07:12:00,56.0,50.0,30.10,ENE,66,4.0,12.0,79,0.01,,,0.02,,2013-04-04 11:12:00,
2013-04-04 07:22:00,56.0,49.0,30.09,North,354,6.0,15.0,77,0.01,,,0.02,,2013-04-04 11:22:00,
2013-04-04 07:33:00,56.0,50.0,30.10,NE,37,7.0,13.0,79,0.01,,,0.02,,2013-04-04 11:33:00,
2013-04-04 07:42:00,56.0,50.0,30.10,NE,37,7.0,13.0,79,0.01,,,0.02,,2013-04-04 11:42:00,
2013-04-04 07:55:00,55.0,49.0,30.10,NE,36,7.0,17.0,80,0.01,,,0.02,,2013-04-04 11:55:00,
2013-04-04 08:03:00,56.0,48.0,30.10,ENE,61,5.0,14.0,75,0.01,,,0.02,,2013-04-04 12:03:00,
2013-04-04 08:12:00,56.0,48.0,30.10,ENE,61,5.0,14.0,75,0.01,,,0.02,,2013-04-04 12:12:00,
2013-04-04 08:23:00,56.0,49.0,30.10,NE,38,7.0,15.0,77,0.00,,,0.02,,2013-04-04 12:23:00,
2013-04-04 08:33:00,55.0,49.0,30.10,NNW,347,6.0,15.0,79,0.00,,,0.02,,2013-04-04 12:33:00,
2013-04-04 08:43:00,55.0,49.0,30.10,NNW,347,6.0,15.0,79,0.00,,,0.02,,2013-04-04 12:43:00,
2013-04-04 08:53:00,56.0,50.0,30.10,NNE,25,7.0,16.0,79,0.00,,,0.02,,2013-04-04 12:53:00,
2013-04-04 09:02:00,56.0,50.0,30.09,North,4,7.0,15.0,79,0.00,,,0.02,,2013-04-04 13:02:00,
2013-04-04 09:13:00,56.0,50.0,30.09,North,4,7.0,15.0,79,0.00,,,0.02,,2013-04-04 13:13:00,
2013-04-04 09:22:00,56.0,50.0,30.09,NE,48,5.0,17.0,79,0.00,,,0.02,,2013-04-04 13:22:00,
2013-04-04 09:33:00,56.0,50.0,30.09,NNE,30,6.0,15.0,79,0.00,,,0.02,,2013-04-04 13:33:00,
2013-04-04 09:43:00,56.0,50.0,30.09,NNE,30,6.0,15.0,79,0.00,,,0.02,,2013-04-04 13:43:00,
2013-04-04 09:53:00,56.0,51.0,30.07,SSE,166,6.0,21.0,83,0.00,,,0.02,,2013-04-04 13:53:00,
2013-04-04 10:03:00,56.0,51.0,30.05,NNE,33,8.0,15.0,83,0.00,,,0.02,,2013-04-04 14:03:00,
2013-04-04 10:13:00,56.0,51.0,30.05,NNE,33,8.0,15.0,83,0.00,,,0.02,,2013-04-04 14:13:00,
2013-04-04 10:22:00,56.0,52.0,30.05,East,92,5.0,18.0,87,0.01,,,0.03,,2013-04-04 14:22:00,
2013-04-04 10:33:00,56.0,52.0,30.05,East,92,5.0,18.0,87,0.01,,,0.03,,2013-04-04 14:33:00,
2013-04-04 10:43:00,56.0,52.0,30.05,East,92,5.0,18.0,87,0.01,,,0.03,,2013-04-04 14:43:00,
2013-04-04 10:53:00,56.0,53.0,30.04,NE,37,7.0,14.0,90,0.02,,,0.04,,2013-04-04 14:53:00,
2013-04-04 11:02:00,56.0,53.0,30.05,East,91,7.0,18.0,90,0.02,,,0.04,,2013-04-04 15:02:00,
2013-04-04 11:13:00,56.0,53.0,30.05,East,91,7.0,18.0,90,0.02,,,0.04,,2013-04-04 15:13:00,
2013-04-04 11:23:00,56.0,54.0,30.04,NE,37,9.0,16.0,92,0.01,,,0.04,,2013-04-04 15:23:00,
2013-04-04 11:33:00,56.0,53.0,30.03,NNE,33,5.0,14.0,91,0.00,,,0.04,,2013-04-04 15:33:00,
2013-04-04 11:43:00,56.0,53.0,30.03,NNE,33,5.0,14.0,91,0.00,,,0.04,,2013-04-04 15:43:00,
2013-04-04 11:54:00,56.0,54.0,30.03,NE,48,6.0,20.0,92,0.01,,,0.05,,2013-04-04 15:54:00,
2013-04-04 12:03:00,56.0,54.0,30.02,NNE,20,6.0,20.0,93,0.02,,,0.06,,2013-04-04 16:03:00,
2013-04-04 12:13:00,56.0,54.0,30.02,NNE,20,6.0,20.0,93,0.02,,,0.06,,2013-04-04 16:13:00,
2013-04-04 12:24:00,56.0,54.0,30.01,NE,45,5.0,20.0,94,0.02,,,0.06,,2013-04-04 16:24:00,
2013-04-04 12:33:00,56.0,54.0,30.01,ENE,62,4.0,16.0,94,0.03,,,0.07,,2013-04-04 16:33:00,
2013-04-04 12:43:00,56.0,54.0,30.01,ENE,62,4.0,16.0,94,0.03,,,0.07,,2013-04-04 16:43:00,
2013-04-04 12:55:00,56.0,55.0,30.00,NE,43,5.0,13.0,95,0.07,,,0.12,,2013-04-04 16:55:00,
2013-04-04 13:03:00,56.0,55.0,29.99,NE,43,5.0,15.0,95,0.07,,,0.13,,2013-04-04 17:03:00,
2013-04-04 13:14:00,56.0,55.0,29.99,NE,43,5.0,15.0,95,0.07,,,0.13,,2013-04-04 17:14:00,
2013-04-04 13:23:00,56.0,55.0,29.98,NE,38,6.0,9.0,96,0.09,,,0.15,,2013-04-04 17:23:00,
2013-04-04 13:33:00,57.0,56.0,29.98,ENE,74,5.0,9.0,96,0.11,,,0.18,,2013-04-04 17:33:00,
2013-04-04 13:43:00,57.0,56.0,29.98,ENE,74,5.0,9.0,96,0.11,,,0.18,,2013-04-04 17:43:00,
2013-04-04 13:53:00,57.0,56.0,29.96,NNE,17,4.0,10.0,97,0.09,,,0.21,,2013-04-04 17:53:00,
2013-04-04 14:02:00,57.0,56.0,29.96,NE,43,4.0,10.0,97,0.11,,,0.24,,2013-04-04 18:02:00,
2013-04-04 14:12:00,57.0,56.0,29.96,NE,43,4.0,10.0,97,0.11,,,0.24,,2013-04-04 18:12:00,
2013-04-04 14:23:00,58.0,57.0,29.93,NE,41,2.0,9.0,97,0.15,,,0.30,,2013-04-04 18:23:00,
2013-04-04 14:32:00,58.0,57.0,29.93,NNE,31,3.0,10.0,97,0.14,,,0.32,,2013-04-04 18:32:00,
2013-04-04 14:43:00,58.0,57.0,29.93,NNE,31,3.0,10.0,97,0.14,,,0.32,,2013-04-04 18:43:00,
2013-04-04 14:53:00,60.0,59.0,29.90,NE,55,4.0,10.0,98,0.16,,,0.37,,2013-04-04 18:53:00,
2013-04-04 15:02:00,60.0,59.0,29.89,NNE,22,3.0,9.0,98,0.19,,,0.43,,2013-04-04 19:02:00,
2013-04-04 15:12:00,60.0,59.0,29.89,NNE,22,3.0,9.0,98,0.19,,,0.43,,2013-04-04 19:12:00,
2013-04-04 15:22:00,61.0,60.0,29.88,NE,48,4.0,9.0,98,0.15,,,0.45,,2013-04-04 19:22:00,
2013-04-04 15:33:00,61.0,60.0,29.87,ENE,59,4.0,9.0,98,0.14,,,0.46,,2013-04-04 19:33:00,
2013-04-04 15:42:00,61.0,60.0,29.87,ENE,59,4.0,9.0,98,0.14,,,0.46,,2013-04-04 19:42:00,
2013-04-04 15:53:00,62.0,61.0,29.85,ENE,67,5.0,12.0,98,0.14,,,0.51,,2013-04-04 19:53:00,
2013-04-04 16:04:00,62.0,61.0,29.84,South,176,2.0,9.0,98,0.08,,,0.51,,2013-04-04 20:04:00,
2013-04-04 16:12:00,62.0,61.0,29.84,South,176,2.0,9.0,98,0.08,,,0.51,,2013-04-04 20:12:00,
2013-04-04 16:23:00,63.0,62.0,29.83,SSW,200,3.0,12.0,98,0.06,,,0.51,,2013-04-04 20:23:00,
2013-04-04 16:32:00,63.0,62.0,29.83,North,5,3.0,6.0,98,0.05,,,0.51,,2013-04-04 20:32:00,
2013-04-04 16:42:00,63.0,62.0,29.83,North,5,3.0,6.0,98,0.05,,,0.51,,2013-04-04 20:42:00,
2013-04-04 16:53:00,63.0,62.0,29.83,NNW,340,2.0,3.0,98,0.00,,,0.51,,2013-04-04 20:53:00,
2013-04-04 17:02:00,63.0,62.0,29.83,NNW,340,2.0,3.0,98,0.00,,,0.51,,2013-04-04 21:02:00,
2013-04-04 17:12:00,63.0,62.0,29.83,NNW,340,2.0,3.0,98,0.00,,,0.51,,2013-04-04 21:12:00,
2013-04-04 17:22:00,62.0,61.0,29.82,North,353,3.0,8.0,97,0.00,,,0.51,,2013-04-04 21:22:00,
2013-04-04 17:32:00,61.0,60.0,29.82,North,6,3.0,8.0,95,0.00,,,0.51,,2013-04-04 21:32:00,
2013-04-04 17:43:00,61.0,60.0,29.82,North,6,3.0,8.0,95,0.00,,,0.51,,2013-04-04 21:43:00,
2013-04-04 17:53:00,60.0,59.0,29.82,North,6,2.0,5.0,96,0.00,,,0.51,,2013-04-04 21:53:00,
2013-04-04 18:04:00,60.0,59.0,29.82,NNW,331,2.0,5.0,97,0.00,,,0.51,,2013-04-04 22:04:00,
2013-04-04 18:12:00,60.0,59.0,29.82,NNW,331,2.0,5.0,97,0.00,,,0.51,,2013-04-04 22:12:00,
2013-04-04 18:23:00,60.0,59.0,29.83,WSW,244,2.0,5.0,97,0.00,,,0.51,,2013-04-04 22:23:00,
2013-04-04 18:33:00,59.0,58.0,29.82,NNE,16,1.0,8.0,97,0.00,,,0.51,,2013-04-04 22:33:00,
2013-04-04 18:43:00,59.0,58.0,29.82,NNE,16,1.0,8.0,97,0.00,,,0.51,,2013-04-04 22:43:00,
2013-04-04 18:53:00,59.0,58.0,29.82,NNW,338,1.0,6.0,97,0.00,,,0.51,,2013-04-04 22:53:00,
2013-04-04 19:03:00,58.0,57.0,29.82,NNE,27,1.0,7.0,96,0.00,,,0.51,,2013-04-04 23:03:00,
2013-04-04 19:13:00,58.0,57.0,29.82,NNE,27,1.0,7.0,96,0.00,,,0.51,,2013-04-04 23:13:00,
2013-04-04 19:22:00,58.0,57.0,29.82,North,5,2.0,3.0,97,0.00,,,0.51,,2013-04-04 23:22:00,
2013-04-04 19:32:00,58.0,57.0,29.82,WNW,298,1.0,3.0,97,0.00,,,0.51,,2013-04-04 23:32:00,
2013-04-04 19:42:00,58.0,57.0,29.82,WNW,298,1.0,3.0,97,0.00,,,0.51,,2013-04-04 23:42:00,
2013-04-04 19:52:00,57.0,56.0,29.82,NNW,327,2.0,6.0,97,0.00,,,0.51,,2013-04-04 23:52:00,
2013-04-04 20:02:00,57.0,56.0,29.82,North,354,1.0,3.0,97,0.00,,,0.51,,2013-04-05 00:02:00,
2013-04-04 20:12:00,57.0,56.0,29.82,North,354,1.0,3.0,97,0.00,,,0.51,,2013-04-05 00:12:00,
2013-04-04 20:22:00,57.0,56.0,29.83,NW,321,1.0,3.0,97,0.00,,,0.51,,2013-04-05 00:22:00,
2013-04-04 20:33:00,56.0,55.0,29.83,NW,319,1.0,3.0,97,0.00,,,0.51,,2013-04-05 00:33:00,
2013-04-04 20:42:00,56.0,55.0,29.83,NW,319,1.0,3.0,97,0.00,,,0.51,,2013-04-05 00:42:00,
2013-04-04 20:52:00,55.0,54.0,29.84,WNW,297,2.0,7.0,96,0.00,,,0.51,,2013-04-05 00:52:00,
2013-04-04 21:02:00,55.0,54.0,29.84,NNE,14,2.0,5.0,96,0.00,,,0.51,,2013-04-05 01:02:00,
2013-04-04 21:12:00,55.0,54.0,29.84,NNE,14,2.0,5.0,96,0.00,,,0.51,,2013-04-05 01:12:00,
2013-04-04 21:22:00,55.0,54.0,29.85,NE,53,0.0,3.0,97,0.00,,,0.51,,2013-04-05 01:22:00,
2013-04-04 21:32:00,55.0,54.0,29.85,NNE,23,0.0,3.0,97,0.00,,,0.51,,2013-04-05 01:32:00,
2013-04-04 21:42:00,55.0,54.0,29.85,NNE,23,0.0,3.0,97,0.00,,,0.51,,2013-04-05 01:42:00,
2013-04-04 21:54:00,54.0,53.0,29.85,North,354,1.0,3.0,97,0.00,,,0.51,,2013-04-05 01:54:00,
2013-04-04 22:03:00,54.0,53.0,29.86,NNW,343,1.0,3.0,96,0.00,,,0.51,,2013-04-05 02:03:00,
2013-04-04 22:12:00,54.0,53.0,29.86,NNW,343,1.0,3.0,96,0.00,,,0.51,,2013-04-05 02:12:00,
2013-04-04 22:22:00,53.0,52.0,29.86,NW,314,0.0,2.0,97,0.00,,,0.51,,2013-04-05 02:22:00,
2013-04-04 22:32:00,53.0,52.0,29.86,North,354,0.0,3.0,97,0.00,,,0.51,,2013-04-05 02:32:00,
2013-04-04 22:42:00,53.0,52.0,29.86,North,354,0.0,3.0,97,0.00,,,0.51,,2013-04-05 02:42:00,
2013-04-04 22:52:00,53.0,52.0,29.87,NW,320,1.0,3.0,97,0.00,,,0.51,,2013-04-05 02:52:00,
2013-04-04 23:02:00,53.0,52.0,29.87,NW,305,1.0,3.0,97,0.00,,,0.51,,2013-04-05 03:02:00,
2013-04-04 23:12:00,53.0,52.0,29.87,NW,305,1.0,3.0,97,0.00,,,0.51,,2013-04-05 03:12:00,
2013-04-04 23:22:00,52.0,51.0,29.88,North,8,2.0,3.0,97,0.00,,,0.51,,2013-04-05 03:22:00,
2013-04-04 23:32:00,52.0,51.0,29.88,North,11,2.0,5.0,97,0.00,,,0.51,,2013-04-05 03:32:00,
2013-04-04 23:43:00,52.0,51.0,29.88,North,11,2.0,5.0,97,0.00,,,0.51,,2013-04-05 03:43:00,